WY1U-1 Weather Reports


time (UTC)temp
C
wind
direction
speed
KPH
gust
KPH
rain 1hr
cm
rain 24hr
cm
rain mn
cm
humidity
%
barometer
mb
20260905230151 22 0 0.0 0.0 0.00 0.00 0.00 70 1010.9
20260905220153 23 0 0.0 0.0 0.00 0.00 0.00 67 1010.7
20260905210151 23 0 0.0 0.0 0.00 0.00 0.00 64 1010.0
20260905200151 25 285 0.0 4.8 0.00 0.00 0.00 62 1009.7
20260905190151 25 290 3.2 8.0 0.00 0.00 0.00 61 1009.9
20260905180151 25 12 3.2 8.0 0.00 0.00 0.00 59 1010.2
20260905170151 25 8 1.6 8.0 0.00 0.00 0.00 56 1010.1
20260905160151 24 28 4.8 11.3 0.00 0.00 0.00 61 1010.1
20260905150151 24 28 3.2 9.7 0.00 0.00 0.00 61 1010.3
20260905130151 20 333 1.6 3.2 0.00 0.00 0.00 79 1010.7
20260905120151 18 0 0.0 0.0 0.00 0.00 0.00 85 1010.7
20260905110152 17 0 0.0 0.0 0.00 0.00 0.00 90 1010.2
20260905100151 17 0 0.0 0.0 0.00 0.00 0.00 88 1009.7
20260905090151 17 0 0.0 0.0 0.00 0.03 0.00 88 1009.6
20260905080151 17 311 1.6 6.4 0.00 0.30 0.00 88 1009.5
20260905070158 17 321 0.0 1.6 0.00 0.30 0.00 85 1009.7
20260905070151 17 321 0.0 1.6 0.00 0.30 0.00 85 1009.7
20260905060151 18 0 0.0 0.0 0.00 0.30 0.00 86 1010.2
20260905050151 18 93 1.6 3.2 0.00 0.30 0.00 82 1010.5
20260905040151 18 0 0.0 0.0 0.00 0.30 0.00 86 1010.6
20260905030152 19 0 0.0 0.0 0.00 0.30 0.30 84 1010.4
20260905020151 20 0 0.0 0.0 0.00 0.30 0.30 84 1010.4
20260905010153 20 0 0.0 0.0 0.00 0.30 0.30 81 1010.7
20260905000151 22 0 0.0 0.0 0.00 0.30 0.30 74 1010.4